Regional Weather Roundup
Issued by NWS

Home | Current Version | Previous Version | Text Only | Print | Product List | Glossary Off
Versions: 1 2 3 4 5 6 7 8 9 10 11 12 13 14 15 16 17 18 19 20 21 22 23 24 25 26 27 28 29 30 31 32 33 34 35 36 37 38 39 40 41 42 43 44 45 46 47 48 49 50

378
ASUS43 KIND 091809
RWRIN

WEATHER ROUNDUP FOR INDIANA
NATIONAL WEATHER SERVICE INDIANAPOLIS IN
100 PM EST TUE FEB 09 2016

NOTE: "FAIR" INDICATES FEW OR NO CLOUDS BELOW 12,000 FEET WITH NO
SIGNIFICANT WEATHER AND/OR OBSTRUCTIONS TO VISIBILITY.

* - STATION DOES NOT REPORT WEATHER SUCH AS PRECIPITATION OR FOG.

+ - STATION NOT QUALITY CONTROLLED BY THE NATIONAL WEATHER SERVICE.
    USE DATA WITH CAUTION...ESPECIALLY DEWPOINT AND RELATIVE
    HUMIDITY OBSERVATIONS.

INZ001>003-010>013-019-020-091900-
NORTHWEST INDIANA

CITY           SKY/WX    TMP DP  RH WIND       PRES   REMARKS
GARY /AIRPORT/ PTSUNNY  N/A N/A N/A W12       29.83F
KNOX *+        CLOUDY    23  18  80 NW18G24   29.77S WCI   9
LA PORTE +     LGT SNOW  24  19  83 NW13G22   29.77S WCI  12
6HR MIN TEMP:  24; 6HR MAX TEMP:  27;

MICHIGAN CITY+ LGT SNOW  23  18  80 NW7G20    29.79S WCI  15
MONTICELLO +   FLURRIES  21  13  71 W13       29.80S WCI   8
6HR MIN TEMP:  19; 6HR MAX TEMP:  21;

RENSSELAER +   LGT SNOW  21  14  73 NW13G21   29.81F WCI   9
VALPARAISO     LGT SNOW  20  14  77 MISG      29.79S
6HR MIN TEMP:  20; 6HR MAX TEMP:  21; 6HR PCP: TRACE;


$$

LMZ046-743>745-091900-
SOUTHERN LAKE MICHIGAN

STATION/POSITION TIME  TEMP    WIND        PRES    WAVE
                       AIR SEA DIR/SP/G            HT
                 (UTC) (F)     (DEG/KT/KT) (MB)    (FT)
BURNS HARBOR     1722   20     320/ 18     1009.8R
MICHIGAN CITY    1700   21     280/ 18/ 22   N/A

$$

INZ004-005-014>016-021>024-091900-
NORTH CENTRAL INDIANA

CITY           SKY/WX    TMP DP  RH WIND       PRES   REMARKS
ELKHART        FLURRIES  27  19  74 NW14G20   29.72S WCI  15
GOSHEN         CLOUDY    27  20  75 NW17      29.70S WCI  14
6HR MIN TEMP:  26; 6HR MAX TEMP:  28; 6HR PCP: TRACE;

LOGANSPORT +   FLURRIES  21  12  68 W14       29.78S WCI   8
PERU/GRISSOM   FLURRIES  22  17  81 W16       29.74S WCI   9
6HR MIN TEMP:  21; 6HR MAX TEMP:  22; 6HR PCP: TRACE;

ROCHESTER +    CLOUDY    28  19  69 W16       29.74S WCI  17
SOUTH BEND     LGT SNOW  24  18  77 NW16      29.74S WCI  11
6HR MIN TEMP:  24; 6HR MAX TEMP:  27; 6HR PCP: TRACE;

WARSAW +       CLOUDY    28  21  74 NW16      29.71S WCI  17

$$

INZ006>009-017-018-025>027-091900-
NORTHEAST INDIANA

CITY           SKY/WX    TMP DP  RH WIND       PRES   REMARKS
ANGOLA *+      CLOUDY    27  21  80 NW13      29.64F WCI  16
AUBURN +       CLOUDY    30  21  69 NW15G25   29.67F WCI  19
FORT WAYNE     CLOUDY    28  21  75 W15       29.69F WCI  16
6HR MIN TEMP:  25; 6HR MAX TEMP:  28; 6HR PCP: TRACE;

HUNTINGTON +   CLOUDY    24  16  73 W13G23    29.71F WCI  12
6HR MIN TEMP:  22; 6HR MAX TEMP:  24;


$$

INZ028-029-035-036-043>045-051>053-091900-
WEST CENTRAL INDIANA

CITY           SKY/WX    TMP DP  RH WIND       PRES   REMARKS
GREENCASTLE +  LGT SNOW  21  10  63 NW8       29.83S WCI  12
LAFAYETTE      LGT SNOW  21  15  78 NW12G20   29.82S WCI   9
6HR MIN TEMP:  19; 6HR MAX TEMP:  22; 6HR PCP: TRACE;

TERRE HAUTE    FLURRIES  21  12  68 NW12      29.87S WCI   9
6HR MIN TEMP:  19; 6HR MAX TEMP:  21; 6HR PCP: TRACE;


$$

INZ030>032-037>040-046>048-054>057-064-065-091900-
CENTRAL INDIANA

CITY           SKY/WX    TMP DP  RH WIND       PRES   REMARKS
ANDERSON       LGT SNOW  23  18  80 W12G23    29.76S WCI  12
COLUMBUS       FLURRIES  23  18  80 W14       29.82F WCI  11
FISHERS *+     CLOUDY    23  19  86 W14G20    29.78F WCI  11
FRANKFORT +    FLURRIES  24  13  65 W13       29.80S WCI  12
6HR MIN TEMP:  20; 6HR MAX TEMP:  24;

GREENWOOD *+   CLOUDY    23  18  80 W10G20    29.80S WCI  12
INDIANAPOLIS   LGT SNOW  23  16  74 W16       29.79F WCI  10
6HR MIN TEMP:  20; 6HR MAX TEMP:  23; 6HR PCP: TRACE;

-EAGLE CREEK   FLURRIES  22  16  78 W16       29.79S WCI   8
6HR MIN TEMP:  20; 6HR MAX TEMP:  22; 6HR PCP: TRACE;

KOKOMO *+      CLOUDY    21  16  79 W21       29.76S WCI   6
6HR MIN TEMP:  21; 6HR MAX TEMP:  21;

MARION +       CLOUDY    22  13  67 W17G24    29.75S WCI   8
MT COMFORT *+  CLOUDY    23  18  80 W15G24    29.78S WCI  10
SHELBYVILLE    CLOUDY    24  16  71 W14       29.78F WCI  12
6HR MIN TEMP:  22; 6HR MAX TEMP:  24; 6HR PCP: TRACE;

ZIONSVILLE +   FLURRIES  22  16  78 W15G23    29.78S WCI   8
6HR MIN TEMP:  19; 6HR MAX TEMP:  22;


$$

INZ033-034-041-042-049-050-058-059-091900-
EAST CENTRAL INDIANA

CITY           SKY/WX    TMP DP  RH WIND       PRES   REMARKS
MUNCIE         LGT SNOW  24  17  74 W14       29.74S WCI  12
6HR MIN TEMP:  22; 6HR MAX TEMP:  24; 6HR PCP: TRACE;


$$

INZ060-061-067>069-081>083-085>088-091900-
SOUTHWEST INDIANA

CITY           SKY/WX    TMP DP  RH WIND       PRES   REMARKS
EVANSVILLE     CLOUDY    24  13  62 W14G21    29.94S WCI  12
6HR MIN TEMP:  23; 6HR MAX TEMP:  25; 6HR PCP: TRACE;

HUNTINGBURG *+ CLOUDY    23  16  74 W13       29.90F WCI  11
6HR MIN TEMP:  19; 6HR MAX TEMP:  23;

WASHINGTON +   LGT SNOW  22  15  76 NW14      29.90S WCI   9
6HR MIN TEMP:  19; 6HR MAX TEMP:  22;


$$

INZ062-063-066-070>080-084-089>092-091900-
SOUTH CENTRAL AND SOUTHEAST INDIANA

CITY           SKY/WX    TMP DP  RH WIND       PRES   REMARKS
BEDFORD +      CLOUDY    23  18  80 W10G16    29.84F WCI  12
BLOOMINGTON    LGT SNOW  21  15  78 W12G18    29.83S WCI   9
6HR MIN TEMP:  19; 6HR MAX TEMP:  22; 6HR PCP: TRACE;

MADISON *+     CLOUDY    25  16  68 W8        29.83S WCI  16
NORTH VERNON + LGT SNOW  23  18  80 W10       29.82S WCI  12
SEYMOUR +      CLOUDY    27  16  63 W14       29.83F WCI  15

$$





USA.gov is the U.S. government's official web portal to all federal, state and local government web resources and services.